Location: Poughquag
(41.6090°N, 73.6820°W)
Time: 17:37:26
(UTC-04:00)

STARLINK-1357 - Pass Details

Date: 29 May 2020
Orbit: 549 x 551 km, 53.0° (Epoch: 19 September)

Event Time Altitude Azimuth Distance (km) Brightness Sun altitude
Exits shadow 00:13:29 14° 67° (ENE) 1,579 6.1 -26.1°
Drops below altitude 10° 00:14:04 10° 64° (ENE) 1,798 6.4 -26.1°
Enters shadow 01:19:00 -54° 238° (WSW) 10,878 10.2 -26.4°
